Overview Statistics Trail Chart Weather Telemetry Raw packets
 

This is the latest recevied weather packets stored in our database for station/object NR0A-4. If no packets are shown the sender has not sent any weather packets the latest 10 day(s).

<< 24 25 26 27 28 29 30 >>
Time Temp. Humidity Pressure Rain* Wind** Luminosity Snow
1788487804 28.33° C 70% 1009 hPa 0 mm - 0 W/m² -
1788487504 28.89° C 70% 1008.9 hPa 0 mm - 0 W/m² -
1788487204 28.89° C 70% 1009 hPa 0 mm - 0 W/m² -
1788486904 28.89° C 70% 1008.8 hPa 0 mm - 0 W/m² -
1788486604 28.89° C 69% 1008.7 hPa 0 mm - 0 W/m² -
1788486304 28.89° C 69% 1008.7 hPa 0 mm - 0 W/m² -
1788486004 29.44° C 68% 1008.7 hPa 0 mm - 0 W/m² -
1788485705 29.44° C 67% 1008.6 hPa 0 mm - 0 W/m² -
1788485404 29.44° C 67% 1008.5 hPa 0 mm - 0 W/m² -
1788485104 29.44° C 66% 1008.5 hPa 0 mm - 0 W/m² -
1788484804 29.44° C 66% 1008.4 hPa 0 mm - 0 W/m² -
1788484504 29.44° C 66% 1008.5 hPa 0 mm - 0 W/m² -
1788484204 30° C 66% 1008.4 hPa 0 mm - 0 W/m² -
1788483904 30° C 66% 1008.4 hPa 0 mm - 0 W/m² -
1788483604 30° C 65% 1008.3 hPa 0 mm - 0 W/m² -
1788483304 30.56° C 64% 1008.3 hPa 0 mm - 7 W/m² -
1788483004 30.56° C 64% 1008.3 hPa 0 mm - 11 W/m² -
1788482704 31.11° C 64% 1008.3 hPa 0 mm - 12 W/m² -
1788482404 31.11° C 63% 1008.3 hPa 0 mm - 16 W/m² -
1788482104 31.11° C 62% 1008.3 hPa 0 mm - 19 W/m² -
1788481804 31.67° C 62% 1008.2 hPa 0 mm - 23 W/m² -
1788481504 31.67° C 61% 1008.2 hPa 0 mm - 25 W/m² -
1788481204 31.67° C 61% 1008.2 hPa 0 mm - 26 W/m² -
1788480904 32.22° C 62% 1008.3 hPa 0 mm - 30 W/m² -
1788480604 32.22° C 61% 1008.3 hPa 0 mm - 32 W/m² -

* Rain latest hour (hover to see other rain measurements)
** Current wind speed in m/s (hover to see current wind gust speed)